Year,Month,Day,Hour,Minute,Value (Times are PST for temperature in C)
2015,08,13,00,00,22.40
2015,08,13,00,01,22.30
2015,08,13,00,02,22.20
2015,08,13,00,03,22.00
2015,08,13,00,04,22.00
2015,08,13,00,05,21.90
2015,08,13,00,06,21.80
2015,08,13,00,07,21.70
2015,08,13,00,08,21.60
2015,08,13,00,09,21.60
2015,08,13,00,10,21.50
2015,08,13,00,11,21.30
2015,08,13,00,12,21.30
2015,08,13,00,13,21.30
2015,08,13,00,14,21.20
2015,08,13,00,15,21.20
2015,08,13,00,16,21.10
2015,08,13,00,17,21.00
2015,08,13,00,18,21.00
2015,08,13,00,19,20.90
2015,08,13,00,20,20.90
2015,08,13,00,21,20.80
2015,08,13,00,22,20.80
2015,08,13,00,23,20.70
2015,08,13,00,24,20.70
2015,08,13,00,25,20.60
2015,08,13,00,26,20.60
2015,08,13,00,27,20.50
2015,08,13,00,28,20.50
2015,08,13,00,29,20.40
2015,08,13,00,30,20.40
2015,08,13,00,31,20.30
2015,08,13,00,32,20.20
2015,08,13,00,33,20.20
2015,08,13,00,34,20.20
2015,08,13,00,35,20.10
2015,08,13,00,36,20.10
2015,08,13,00,37,20.00
2015,08,13,00,38,19.90
2015,08,13,00,39,19.90
2015,08,13,00,40,19.90
2015,08,13,00,41,19.90
2015,08,13,00,42,19.80
2015,08,13,00,43,19.80
2015,08,13,00,44,19.70
2015,08,13,00,45,19.70
2015,08,13,00,46,19.60
2015,08,13,00,47,19.60
2015,08,13,00,48,19.60
2015,08,13,00,49,19.50
2015,08,13,00,50,19.50
2015,08,13,00,51,19.50
2015,08,13,00,52,19.40
2015,08,13,00,53,19.40
2015,08,13,00,54,19.40
2015,08,13,00,55,19.30
2015,08,13,00,56,19.30
2015,08,13,00,57,19.20
2015,08,13,00,58,19.20
2015,08,13,00,59,19.10
2015,08,13,01,00,19.10
2015,08,13,01,01,19.10
2015,08,13,01,02,19.00
2015,08,13,01,03,18.90
2015,08,13,01,04,18.90
2015,08,13,01,05,18.90
2015,08,13,01,06,18.90
2015,08,13,01,07,18.80
2015,08,13,01,08,18.80
2015,08,13,01,09,18.80
2015,08,13,01,10,18.70
2015,08,13,01,11,18.70
2015,08,13,01,12,18.60
2015,08,13,01,13,18.60
2015,08,13,01,14,18.60
2015,08,13,01,15,18.50
2015,08,13,01,16,18.50
2015,08,13,01,17,18.50
2015,08,13,01,18,18.50
2015,08,13,01,19,18.40
2015,08,13,01,20,18.40
2015,08,13,01,21,18.40
2015,08,13,01,22,18.30
2015,08,13,01,23,18.30
2015,08,13,01,24,18.30
2015,08,13,01,25,18.30
2015,08,13,01,26,18.20
2015,08,13,01,27,18.20
2015,08,13,01,28,18.20
2015,08,13,01,29,18.20
2015,08,13,01,30,18.20
2015,08,13,01,31,18.20
2015,08,13,01,32,18.20
2015,08,13,01,33,18.10
2015,08,13,01,34,18.10
2015,08,13,01,35,18.10
2015,08,13,01,36,18.00
2015,08,13,01,37,17.90
2015,08,13,01,38,17.90
2015,08,13,01,39,17.90
2015,08,13,01,40,17.90
2015,08,13,01,41,17.80
2015,08,13,01,42,17.80
2015,08,13,01,43,17.80
2015,08,13,01,44,17.70
2015,08,13,01,45,17.70
2015,08,13,01,46,17.70
2015,08,13,01,47,17.60
2015,08,13,01,48,17.60
2015,08,13,01,49,17.50
2015,08,13,01,50,17.50
2015,08,13,01,51,17.50
2015,08,13,01,52,17.40
2015,08,13,01,53,17.40
2015,08,13,01,54,17.40
2015,08,13,01,55,17.30
2015,08,13,01,56,17.30
2015,08,13,01,57,17.30
2015,08,13,01,58,17.30
2015,08,13,01,59,17.30
2015,08,13,02,00,17.30
2015,08,13,02,01,17.30
2015,08,13,02,02,17.30
2015,08,13,02,03,17.30
2015,08,13,02,04,17.20
2015,08,13,02,05,17.20
2015,08,13,02,06,17.20
2015,08,13,02,07,17.20
2015,08,13,02,08,17.10
2015,08,13,02,09,17.10
2015,08,13,02,10,17.10
2015,08,13,02,11,17.00
2015,08,13,02,12,17.00
2015,08,13,02,13,17.00
2015,08,13,02,14,17.00
2015,08,13,02,15,16.90
2015,08,13,02,16,16.90
2015,08,13,02,17,16.90
2015,08,13,02,18,16.90
2015,08,13,02,19,16.80
2015,08,13,02,20,16.80
2015,08,13,02,21,16.80
2015,08,13,02,22,16.80
2015,08,13,02,23,16.70
2015,08,13,02,24,16.70
2015,08,13,02,25,16.70
2015,08,13,02,26,16.70
2015,08,13,02,27,16.70
2015,08,13,02,28,16.70
2015,08,13,02,29,16.70
2015,08,13,02,30,16.70
2015,08,13,02,31,16.70
2015,08,13,02,32,16.70
2015,08,13,02,33,16.70
2015,08,13,02,34,16.70
2015,08,13,02,35,16.60
2015,08,13,02,36,16.60
2015,08,13,02,37,16.60
2015,08,13,02,38,16.60
2015,08,13,02,39,16.60
2015,08,13,02,40,16.50
2015,08,13,02,41,16.40
2015,08,13,02,42,16.40
2015,08,13,02,43,16.40
2015,08,13,02,44,16.40
2015,08,13,02,45,16.40
2015,08,13,02,46,16.40
2015,08,13,02,47,16.40
2015,08,13,02,48,16.40
2015,08,13,02,49,16.30
2015,08,13,02,50,16.30
2015,08,13,02,51,16.30
2015,08,13,02,52,16.30
2015,08,13,02,53,16.20
2015,08,13,02,54,16.20
2015,08,13,02,55,16.20
2015,08,13,02,56,16.20
2015,08,13,02,57,16.10
2015,08,13,02,58,16.10
2015,08,13,02,59,16.10
2015,08,13,03,00,16.10
2015,08,13,03,01,16.10
2015,08,13,03,02,16.00
2015,08,13,03,03,15.90
2015,08,13,03,04,15.90
2015,08,13,03,05,15.90
2015,08,13,03,06,15.80
2015,08,13,03,07,15.80
2015,08,13,03,08,15.80
2015,08,13,03,09,15.80
2015,08,13,03,10,15.80
2015,08,13,03,11,15.70
2015,08,13,03,12,15.70
2015,08,13,03,13,15.70
2015,08,13,03,14,15.60
2015,08,13,03,15,15.60
2015,08,13,03,16,15.60
2015,08,13,03,17,15.50
2015,08,13,03,18,15.50
2015,08,13,03,19,15.50
2015,08,13,03,20,15.50
2015,08,13,03,21,15.50
2015,08,13,03,22,15.50
2015,08,13,03,23,15.50
2015,08,13,03,24,15.40
2015,08,13,03,25,15.40
2015,08,13,03,26,15.40
2015,08,13,03,27,15.40
2015,08,13,03,28,15.40
2015,08,13,03,29,15.30
2015,08,13,03,30,15.30
2015,08,13,03,31,15.30
2015,08,13,03,32,15.30
2015,08,13,03,33,15.30
2015,08,13,03,34,15.30
2015,08,13,03,35,15.30
2015,08,13,03,36,15.30
2015,08,13,03,37,15.20
2015,08,13,03,38,15.20
2015,08,13,03,39,15.20
2015,08,13,03,40,15.20
2015,08,13,03,41,15.10
2015,08,13,03,42,15.10
2015,08,13,03,43,15.10
2015,08,13,03,44,15.10
2015,08,13,03,45,15.00
2015,08,13,03,46,15.00
2015,08,13,03,47,15.00
2015,08,13,03,48,15.00
2015,08,13,03,49,14.90
2015,08,13,03,50,14.90
2015,08,13,03,51,14.90
2015,08,13,03,52,14.90
2015,08,13,03,53,14.80
2015,08,13,03,54,14.80
2015,08,13,03,55,14.80
2015,08,13,03,56,14.80
2015,08,13,03,57,14.80
2015,08,13,03,58,14.80
2015,08,13,03,59,14.80
2015,08,13,04,00,14.80
2015,08,13,04,01,14.80
2015,08,13,04,02,14.80
2015,08,13,04,03,14.80
2015,08,13,04,04,14.80
2015,08,13,04,05,14.80
2015,08,13,04,06,14.80
2015,08,13,04,07,14.70
2015,08,13,04,08,14.70
2015,08,13,04,09,14.70
2015,08,13,04,10,14.70
2015,08,13,04,11,14.70
2015,08,13,04,12,14.70
2015,08,13,04,13,14.70
2015,08,13,04,14,14.60
2015,08,13,04,15,14.60
2015,08,13,04,16,14.60
2015,08,13,04,17,14.60
2015,08,13,04,18,14.70
2015,08,13,04,19,14.70
2015,08,13,04,20,14.80
2015,08,13,04,21,14.80
2015,08,13,04,22,14.80
2015,08,13,04,23,14.90
2015,08,13,04,24,14.90
2015,08,13,04,25,15.00
2015,08,13,04,26,15.10
2015,08,13,04,27,15.20
2015,08,13,04,28,15.30
2015,08,13,04,29,15.30
2015,08,13,04,30,15.40
2015,08,13,04,31,15.50
2015,08,13,04,32,15.60
2015,08,13,04,33,15.70
2015,08,13,04,34,15.80
2015,08,13,04,35,15.80
2015,08,13,04,36,15.90
2015,08,13,04,37,16.00
2015,08,13,04,38,16.10
2015,08,13,04,39,16.10
2015,08,13,04,40,16.20
2015,08,13,04,41,16.30
2015,08,13,04,42,16.30
2015,08,13,04,43,16.40
2015,08,13,04,44,16.50
2015,08,13,04,45,16.60
2015,08,13,04,46,16.60
2015,08,13,04,47,16.70
2015,08,13,04,48,16.70
2015,08,13,04,49,16.80
2015,08,13,04,50,16.90
2015,08,13,04,51,16.90
2015,08,13,04,52,17.00
2015,08,13,04,53,17.00
2015,08,13,04,54,17.10
2015,08,13,04,55,17.20
2015,08,13,04,56,17.20
2015,08,13,04,57,17.30
2015,08,13,04,58,17.30
2015,08,13,04,59,17.40
2015,08,13,05,00,17.40
2015,08,13,05,01,17.50
2015,08,13,05,02,17.60
2015,08,13,05,03,17.70
2015,08,13,05,04,17.90
2015,08,13,05,05,17.90
2015,08,13,05,06,17.90
2015,08,13,05,07,17.90
2015,08,13,05,08,17.90
2015,08,13,05,09,17.90
2015,08,13,05,10,17.90
2015,08,13,05,11,17.90
2015,08,13,05,12,17.90
2015,08,13,05,13,17.80
2015,08,13,05,14,17.80
2015,08,13,05,15,17.70
2015,08,13,05,16,17.60
2015,08,13,05,17,17.60
2015,08,13,05,18,17.50
2015,08,13,05,19,17.50
2015,08,13,05,20,17.40
2015,08,13,05,21,17.30
2015,08,13,05,22,17.30
2015,08,13,05,23,17.30
2015,08,13,05,24,17.30
2015,08,13,05,25,17.20
2015,08,13,05,26,17.10
2015,08,13,05,27,17.00
2015,08,13,05,28,17.00
2015,08,13,05,29,17.00
2015,08,13,05,30,16.90
2015,08,13,05,31,16.90
2015,08,13,05,32,16.90
2015,08,13,05,33,16.80
2015,08,13,05,34,16.80
2015,08,13,05,35,16.80
2015,08,13,05,36,16.70
2015,08,13,05,37,16.70
2015,08,13,05,38,16.70
2015,08,13,05,39,16.70
2015,08,13,05,40,16.60
2015,08,13,05,41,16.60
2015,08,13,05,42,16.60
2015,08,13,05,43,16.50
2015,08,13,05,44,16.40
2015,08,13,05,45,16.40
2015,08,13,05,46,16.40
2015,08,13,05,47,16.40
2015,08,13,05,48,16.40
2015,08,13,05,49,16.40
2015,08,13,05,50,16.40
2015,08,13,05,51,16.40
2015,08,13,05,52,16.40
2015,08,13,05,53,16.40
2015,08,13,05,54,16.40
2015,08,13,05,55,16.40
2015,08,13,05,56,16.40
2015,08,13,05,57,16.40
2015,08,13,05,58,16.40
2015,08,13,05,59,16.40
2015,08,13,06,00,16.30
2015,08,13,06,01,16.30
2015,08,13,06,02,16.20
2015,08,13,06,03,16.20
2015,08,13,06,04,16.10
2015,08,13,06,05,16.10
2015,08,13,06,06,16.10
2015,08,13,06,07,16.00
2015,08,13,06,08,15.90
2015,08,13,06,09,15.90
2015,08,13,06,10,15.80
2015,08,13,06,11,15.80
2015,08,13,06,12,15.80
2015,08,13,06,13,15.80
2015,08,13,06,14,15.70
2015,08,13,06,15,15.70
2015,08,13,06,16,15.60
2015,08,13,06,17,15.60
2015,08,13,06,18,15.60
2015,08,13,06,19,15.50
2015,08,13,06,20,15.50
2015,08,13,06,21,15.50
2015,08,13,06,22,15.50
2015,08,13,06,23,15.40
2015,08,13,06,24,15.40
2015,08,13,06,25,15.40
2015,08,13,06,26,15.30
2015,08,13,06,27,15.30
2015,08,13,06,28,15.30
2015,08,13,06,29,15.30
2015,08,13,06,30,15.30
2015,08,13,06,31,15.30
2015,08,13,06,32,15.30
2015,08,13,06,33,15.20
2015,08,13,06,34,15.20
2015,08,13,06,35,15.20
2015,08,13,06,36,15.20
2015,08,13,06,37,15.10
2015,08,13,06,38,15.10
2015,08,13,06,39,15.10
2015,08,13,06,40,15.10
2015,08,13,06,41,15.00
2015,08,13,06,42,15.00
2015,08,13,06,43,15.00
2015,08,13,06,44,15.00
2015,08,13,06,45,15.00
2015,08,13,06,46,14.90
2015,08,13,06,47,14.90
2015,08,13,06,48,14.90
2015,08,13,06,49,14.90
2015,08,13,06,50,14.90
2015,08,13,06,51,14.90
2015,08,13,06,52,14.90
2015,08,13,06,53,14.90
2015,08,13,06,54,14.90
2015,08,13,06,55,15.00
2015,08,13,06,56,15.00
2015,08,13,06,57,15.00
2015,08,13,06,58,15.10
2015,08,13,06,59,15.10
2015,08,13,07,00,15.10
2015,08,13,07,01,15.10
2015,08,13,07,02,15.10
2015,08,13,07,03,15.20
2015,08,13,07,04,15.20
2015,08,13,07,05,15.20
2015,08,13,07,06,15.20
2015,08,13,07,07,15.20
2015,08,13,07,08,15.30
2015,08,13,07,09,15.30
2015,08,13,07,10,15.30
2015,08,13,07,11,15.30
2015,08,13,07,12,15.30
2015,08,13,07,13,15.40
2015,08,13,07,14,15.40
2015,08,13,07,15,15.50
2015,08,13,07,16,15.50
2015,08,13,07,17,15.60
2015,08,13,07,18,15.60
2015,08,13,07,19,15.80
2015,08,13,07,20,15.80
2015,08,13,07,21,15.80
2015,08,13,07,22,15.90
2015,08,13,07,23,16.10
2015,08,13,07,24,16.10
2015,08,13,07,25,16.20
2015,08,13,07,26,16.30
2015,08,13,07,27,16.40
2015,08,13,07,28,16.50
2015,08,13,07,29,16.60
2015,08,13,07,30,16.70
2015,08,13,07,31,16.70
2015,08,13,07,32,16.80
2015,08,13,07,33,16.90
2015,08,13,07,34,16.90
2015,08,13,07,35,17.00
2015,08,13,07,36,17.00
2015,08,13,07,37,17.10
2015,08,13,07,38,17.10
2015,08,13,07,39,17.20
2015,08,13,07,40,17.30
2015,08,13,07,41,17.30
2015,08,13,07,42,17.30
2015,08,13,07,43,17.40
2015,08,13,07,44,17.40
2015,08,13,07,45,17.50
2015,08,13,07,46,17.50
2015,08,13,07,47,17.60
2015,08,13,07,48,17.70
2015,08,13,07,49,17.70
2015,08,13,07,50,17.80
2015,08,13,07,51,17.80
2015,08,13,07,52,17.90
2015,08,13,07,53,17.90
2015,08,13,07,54,17.90
2015,08,13,07,55,18.00
2015,08,13,07,56,18.10
2015,08,13,07,57,18.10
2015,08,13,07,58,18.20
2015,08,13,07,59,18.20
2015,08,13,08,00,18.20
2015,08,13,08,01,18.20
2015,08,13,08,02,18.30
2015,08,13,08,03,18.30
2015,08,13,08,04,18.30
2015,08,13,08,05,18.40
2015,08,13,08,06,18.40
2015,08,13,08,07,18.40
2015,08,13,08,08,18.50
2015,08,13,08,09,18.50
2015,08,13,08,10,18.50
2015,08,13,08,11,18.60
2015,08,13,08,12,18.60
2015,08,13,08,13,18.60
2015,08,13,08,14,18.70
2015,08,13,08,15,18.80
2015,08,13,08,16,18.80
2015,08,13,08,17,18.90
2015,08,13,08,18,18.90
2015,08,13,08,19,19.00
2015,08,13,08,20,19.20
2015,08,13,08,21,19.30
2015,08,13,08,22,19.40
2015,08,13,08,23,19.50
2015,08,13,08,24,19.60
2015,08,13,08,25,19.70
2015,08,13,08,26,19.70
2015,08,13,08,27,19.80
2015,08,13,08,28,19.90
2015,08,13,08,29,19.90
2015,08,13,08,30,19.90
2015,08,13,08,31,19.90
2015,08,13,08,32,20.00
2015,08,13,08,33,20.10
2015,08,13,08,34,20.10
2015,08,13,08,35,20.20
2015,08,13,08,36,20.20
2015,08,13,08,37,20.40
2015,08,13,08,38,20.50
2015,08,13,08,39,20.60
2015,08,13,08,40,20.80
2015,08,13,08,41,20.90
2015,08,13,08,42,21.00
2015,08,13,08,43,21.00
2015,08,13,08,44,21.10
2015,08,13,08,45,21.20
2015,08,13,08,46,21.20
2015,08,13,08,47,21.30
2015,08,13,08,48,21.30
2015,08,13,08,49,21.30
2015,08,13,08,50,21.30
2015,08,13,08,51,21.30
2015,08,13,08,52,21.30
2015,08,13,08,53,21.30
2015,08,13,08,54,21.30
2015,08,13,08,55,21.40
2015,08,13,08,56,21.50
2015,08,13,08,57,21.60
2015,08,13,08,58,21.60
2015,08,13,08,59,21.60
2015,08,13,09,00,21.60
2015,08,13,09,01,21.60
2015,08,13,09,02,21.70
2015,08,13,09,03,21.70
2015,08,13,09,04,21.80
2015,08,13,09,05,21.90
2015,08,13,09,06,22.00
2015,08,13,09,07,22.10
2015,08,13,09,08,22.20
2015,08,13,09,09,22.20
2015,08,13,09,10,22.30
2015,08,13,09,11,22.40
2015,08,13,09,12,22.50
2015,08,13,09,13,22.50
2015,08,13,09,14,22.60
2015,08,13,09,15,22.60
2015,08,13,09,16,22.70
2015,08,13,09,17,22.80
2015,08,13,09,18,22.90
2015,08,13,09,19,22.90
2015,08,13,09,20,23.10
2015,08,13,09,21,23.10
2015,08,13,09,22,23.00
2015,08,13,09,23,22.90
2015,08,13,09,24,22.70
2015,08,13,09,25,22.60
2015,08,13,09,26,22.60
2015,08,13,09,27,22.60
2015,08,13,09,28,22.50
2015,08,13,09,29,22.40
2015,08,13,09,30,22.40
2015,08,13,09,31,22.30
2015,08,13,09,32,22.30
2015,08,13,09,33,22.30
2015,08,13,09,34,22.30
2015,08,13,09,35,22.30
2015,08,13,09,36,22.20
2015,08,13,09,37,22.10
2015,08,13,09,38,21.90
2015,08,13,09,39,21.80
2015,08,13,09,40,21.80
2015,08,13,09,41,21.80
2015,08,13,09,42,21.80
2015,08,13,09,43,21.90
2015,08,13,09,44,21.90
2015,08,13,09,45,22.00
2015,08,13,09,46,22.00
2015,08,13,09,47,22.10
2015,08,13,09,48,22.10
2015,08,13,09,49,22.20
2015,08,13,09,50,22.20
2015,08,13,09,51,22.30
2015,08,13,09,52,22.40
2015,08,13,09,53,22.50
2015,08,13,09,54,22.60
2015,08,13,09,55,22.60
2015,08,13,09,56,22.70
2015,08,13,09,57,22.70
2015,08,13,09,58,22.70
2015,08,13,09,59,22.80
2015,08,13,10,00,22.80
2015,08,13,10,01,22.80
2015,08,13,10,02,22.90
2015,08,13,10,03,22.90
2015,08,13,10,04,22.90
2015,08,13,10,05,23.10
2015,08,13,10,06,23.10
2015,08,13,10,07,23.20
2015,08,13,10,08,23.20
2015,08,13,10,09,23.30
2015,08,13,10,10,23.30
2015,08,13,10,11,23.30
2015,08,13,10,12,23.20
2015,08,13,10,13,23.10
2015,08,13,10,14,23.10
2015,08,13,10,15,23.10
2015,08,13,10,16,23.10
2015,08,13,10,17,23.10
2015,08,13,10,18,23.20
2015,08,13,10,19,23.20
2015,08,13,10,20,23.30
2015,08,13,10,21,23.30
2015,08,13,10,22,23.30
2015,08,13,10,23,23.30
2015,08,13,10,24,23.30
2015,08,13,10,25,23.40
2015,08,13,10,26,23.50
2015,08,13,10,27,23.60
2015,08,13,10,28,23.70
2015,08,13,10,29,23.70
2015,08,13,10,30,23.60
2015,08,13,10,31,23.60
2015,08,13,10,32,23.60
2015,08,13,10,33,23.70
2015,08,13,10,34,23.70
2015,08,13,10,35,23.60
2015,08,13,10,36,23.60
2015,08,13,10,37,23.50
2015,08,13,10,38,23.40
2015,08,13,10,39,23.30
2015,08,13,10,40,23.30
2015,08,13,10,41,23.30
2015,08,13,10,42,23.20
2015,08,13,10,43,23.20
2015,08,13,10,44,23.30
2015,08,13,10,45,23.30
2015,08,13,10,46,23.30
2015,08,13,10,47,23.30
2015,08,13,10,48,23.30
2015,08,13,10,49,23.30
2015,08,13,10,50,23.40
2015,08,13,10,51,23.50
2015,08,13,10,52,23.60
2015,08,13,10,53,23.70
2015,08,13,10,54,23.70
2015,08,13,10,55,23.80
2015,08,13,10,56,23.90
2015,08,13,10,57,24.00
2015,08,13,10,58,24.10
2015,08,13,10,59,24.10
2015,08,13,11,00,24.20
2015,08,13,11,01,24.20
2015,08,13,11,02,24.30
2015,08,13,11,03,24.30
2015,08,13,11,04,24.30
2015,08,13,11,05,24.20
2015,08,13,11,06,24.10
2015,08,13,11,07,24.10
2015,08,13,11,08,24.20
2015,08,13,11,09,24.10
2015,08,13,11,10,24.10
2015,08,13,11,11,24.10
2015,08,13,11,12,24.20
2015,08,13,11,13,24.30
2015,08,13,11,14,24.30
2015,08,13,11,15,24.20
2015,08,13,11,16,24.10
2015,08,13,11,17,24.10
2015,08,13,11,18,23.90
2015,08,13,11,19,23.70
2015,08,13,11,20,23.70
2015,08,13,11,21,23.60
2015,08,13,11,22,23.60
2015,08,13,11,23,23.60
2015,08,13,11,24,23.70
2015,08,13,11,25,23.70
2015,08,13,11,26,23.60
2015,08,13,11,27,23.60
2015,08,13,11,28,23.60
2015,08,13,11,29,23.60
2015,08,13,11,30,23.60
2015,08,13,11,31,23.60
2015,08,13,11,32,23.60
2015,08,13,11,33,23.60
2015,08,13,11,34,23.50
2015,08,13,11,35,23.40
2015,08,13,11,36,23.40
2015,08,13,11,37,23.40
2015,08,13,11,38,23.30
2015,08,13,11,39,23.40
2015,08,13,11,40,23.40
2015,08,13,11,41,23.40
2015,08,13,11,42,23.40
2015,08,13,11,43,23.40
2015,08,13,11,44,23.50
2015,08,13,11,45,23.60
2015,08,13,11,46,23.70
2015,08,13,11,47,23.70
2015,08,13,11,48,23.70
2015,08,13,11,49,23.70
2015,08,13,11,50,23.70
2015,08,13,11,51,23.70
2015,08,13,11,52,23.70
2015,08,13,11,53,23.70
2015,08,13,11,54,23.70
2015,08,13,11,55,23.80
2015,08,13,11,56,23.90
2015,08,13,11,57,23.90
2015,08,13,11,58,24.00
2015,08,13,11,59,24.10
2015,08,13,12,00,24.10
2015,08,13,12,01,24.10
2015,08,13,12,02,23.90
2015,08,13,12,03,23.80
2015,08,13,12,04,23.70
2015,08,13,12,05,23.70
2015,08,13,12,06,23.70
2015,08,13,12,07,23.70
2015,08,13,12,08,23.70
2015,08,13,12,09,23.70
2015,08,13,12,10,23.70
2015,08,13,12,11,23.70
2015,08,13,12,12,23.70
2015,08,13,12,13,23.70
2015,08,13,12,14,23.70
2015,08,13,12,15,23.70
2015,08,13,12,16,23.70
2015,08,13,12,17,23.70
2015,08,13,12,18,23.80
2015,08,13,12,19,23.80
2015,08,13,12,20,23.80
2015,08,13,12,21,23.80
2015,08,13,12,22,23.80
2015,08,13,12,23,23.90
2015,08,13,12,24,24.00
2015,08,13,12,25,24.10
2015,08,13,12,26,24.10
2015,08,13,12,27,24.20
2015,08,13,12,28,24.30
2015,08,13,12,29,24.30
2015,08,13,12,30,24.30
2015,08,13,12,31,24.20
2015,08,13,12,32,24.10
2015,08,13,12,33,24.00
2015,08,13,12,34,23.80
2015,08,13,12,35,23.70
2015,08,13,12,36,23.60
2015,08,13,12,37,23.60
2015,08,13,12,38,23.60
2015,08,13,12,39,23.70
2015,08,13,12,40,23.70
2015,08,13,12,41,23.70
2015,08,13,12,42,23.80
2015,08,13,12,43,23.90
2015,08,13,12,44,23.90
2015,08,13,12,45,23.90
2015,08,13,12,46,23.90
2015,08,13,12,47,24.00
2015,08,13,12,48,24.10
2015,08,13,12,49,24.10
2015,08,13,12,50,24.10
2015,08,13,12,51,24.20
2015,08,13,12,52,24.20
2015,08,13,12,53,24.10
2015,08,13,12,54,24.10
2015,08,13,12,55,24.10
2015,08,13,12,56,24.30
2015,08,13,12,57,24.40
2015,08,13,12,58,24.40
2015,08,13,12,59,24.50
2015,08,13,13,00,24.50
2015,08,13,13,01,24.50
2015,08,13,13,02,24.50
2015,08,13,13,03,24.50
2015,08,13,13,04,24.40
2015,08,13,13,05,24.30
2015,08,13,13,06,24.10
2015,08,13,13,07,23.90
2015,08,13,13,08,23.70
2015,08,13,13,09,23.70
2015,08,13,13,10,23.60
2015,08,13,13,11,23.60
2015,08,13,13,12,23.50
2015,08,13,13,13,23.40
2015,08,13,13,14,23.30
2015,08,13,13,15,23.30
2015,08,13,13,16,23.40
2015,08,13,13,17,23.50
2015,08,13,13,18,23.50
2015,08,13,13,19,23.40
2015,08,13,13,20,23.40
2015,08,13,13,21,23.50
2015,08,13,13,22,23.70
2015,08,13,13,23,23.80
2015,08,13,13,24,24.00
2015,08,13,13,25,24.10
2015,08,13,13,26,24.00
2015,08,13,13,27,23.90
2015,08,13,13,28,23.70
2015,08,13,13,29,23.60
2015,08,13,13,30,23.60
2015,08,13,13,31,23.50
2015,08,13,13,32,23.40
2015,08,13,13,33,23.40
2015,08,13,13,34,23.40
2015,08,13,13,35,23.40
2015,08,13,13,36,23.50
2015,08,13,13,37,23.60
2015,08,13,13,38,23.60
2015,08,13,13,39,23.70
2015,08,13,13,40,23.70
2015,08,13,13,41,23.70
2015,08,13,13,42,23.70
2015,08,13,13,43,23.80
2015,08,13,13,44,23.80
2015,08,13,13,45,23.80
2015,08,13,13,46,23.80
2015,08,13,13,47,23.80
2015,08,13,13,48,23.90
2015,08,13,13,49,24.00
2015,08,13,13,50,24.10
2015,08,13,13,51,24.30
2015,08,13,13,52,24.40
2015,08,13,13,53,24.40
2015,08,13,13,54,24.50
2015,08,13,13,55,24.60
2015,08,13,13,56,24.60
2015,08,13,13,57,24.70
2015,08,13,13,58,24.70
2015,08,13,13,59,24.80
2015,08,13,14,00,24.90
2015,08,13,14,01,25.00
2015,08,13,14,02,25.10
2015,08,13,14,03,25.10
2015,08,13,14,04,25.10
2015,08,13,14,05,25.10
2015,08,13,14,06,25.10
2015,08,13,14,07,25.10
2015,08,13,14,08,25.20
2015,08,13,14,09,25.20
2015,08,13,14,10,25.20
2015,08,13,14,11,25.30
2015,08,13,14,12,25.30
2015,08,13,14,13,25.30
2015,08,13,14,14,25.40
2015,08,13,14,15,25.40
2015,08,13,14,16,25.50
2015,08,13,14,17,25.50
2015,08,13,14,18,25.40
2015,08,13,14,19,25.30
2015,08,13,14,20,25.10
2015,08,13,14,21,25.00
2015,08,13,14,22,25.00
2015,08,13,14,23,24.90
2015,08,13,14,24,24.80
2015,08,13,14,25,24.80
2015,08,13,14,26,24.80
2015,08,13,14,27,24.90
2015,08,13,14,28,25.00
2015,08,13,14,29,25.00
2015,08,13,14,30,25.10
2015,08,13,14,31,25.10
2015,08,13,14,32,25.20
2015,08,13,14,33,25.30
2015,08,13,14,34,25.40
2015,08,13,14,35,25.50
2015,08,13,14,36,25.40
2015,08,13,14,37,25.30
2015,08,13,14,38,25.10
2015,08,13,14,39,25.00
2015,08,13,14,40,24.90
2015,08,13,14,41,24.90
2015,08,13,14,42,24.80
2015,08,13,14,43,24.70
2015,08,13,14,44,24.60
2015,08,13,14,45,24.50
2015,08,13,14,46,24.40
2015,08,13,14,47,24.30
2015,08,13,14,48,24.30
2015,08,13,14,49,24.30
2015,08,13,14,50,24.40
2015,08,13,14,51,24.50
2015,08,13,14,52,24.50
2015,08,13,14,53,24.60
2015,08,13,14,54,24.80
2015,08,13,14,55,24.90
2015,08,13,14,56,24.90
2015,08,13,14,57,25.00
2015,08,13,14,58,25.00
2015,08,13,14,59,24.90
2015,08,13,15,00,24.80
2015,08,13,15,01,24.80
2015,08,13,15,02,24.80
2015,08,13,15,03,24.90
2015,08,13,15,04,25.00
2015,08,13,15,05,25.10
2015,08,13,15,06,25.20
2015,08,13,15,07,25.20
2015,08,13,15,08,25.30
2015,08,13,15,09,25.40
2015,08,13,15,10,25.40
2015,08,13,15,11,25.50
2015,08,13,15,12,25.60
2015,08,13,15,13,25.60
2015,08,13,15,14,25.60
2015,08,13,15,15,25.50
2015,08,13,15,16,25.40
2015,08,13,15,17,25.40
2015,08,13,15,18,25.50
2015,08,13,15,19,25.50
2015,08,13,15,20,25.60
2015,08,13,15,21,25.60
2015,08,13,15,22,25.70
2015,08,13,15,23,25.80
2015,08,13,15,24,25.90
2015,08,13,15,25,25.90
2015,08,13,15,26,25.90
2015,08,13,15,27,26.00
2015,08,13,15,28,26.10
2015,08,13,15,29,26.20
2015,08,13,15,30,26.40
2015,08,13,15,31,26.50
2015,08,13,15,32,26.60
2015,08,13,15,33,26.70
2015,08,13,15,34,26.60
2015,08,13,15,35,26.50
2015,08,13,15,36,26.40
2015,08,13,15,37,26.40
2015,08,13,15,38,26.30
2015,08,13,15,39,26.40
2015,08,13,15,40,26.50
2015,08,13,15,41,26.60
2015,08,13,15,42,26.60
2015,08,13,15,43,26.60
2015,08,13,15,44,26.70
2015,08,13,15,45,26.80
2015,08,13,15,46,26.90
2015,08,13,15,47,27.00
2015,08,13,15,48,27.10
2015,08,13,15,49,27.30
2015,08,13,15,50,27.40
2015,08,13,15,51,27.50
2015,08,13,15,52,27.60
2015,08,13,15,53,27.60
2015,08,13,15,54,27.60
2015,08,13,15,55,27.60
2015,08,13,15,56,27.70
2015,08,13,15,57,27.70
2015,08,13,15,58,27.90
2015,08,13,15,59,28.00
2015,08,13,16,00,28.00
2015,08,13,16,01,28.10
2015,08,13,16,02,28.20
2015,08,13,16,03,28.30
2015,08,13,16,04,28.30
2015,08,13,16,05,28.30
2015,08,13,16,06,28.20
2015,08,13,16,07,28.10
2015,08,13,16,08,28.10
2015,08,13,16,09,28.00
2015,08,13,16,10,28.00
2015,08,13,16,11,28.10
2015,08,13,16,12,28.10
2015,08,13,16,13,28.20
2015,08,13,16,14,28.20
2015,08,13,16,15,28.30
2015,08,13,16,16,28.30
2015,08,13,16,17,28.40
2015,08,13,16,18,28.50
2015,08,13,16,19,28.60
2015,08,13,16,20,28.70
2015,08,13,16,21,28.70
2015,08,13,16,22,28.80
2015,08,13,16,23,28.80
2015,08,13,16,24,28.80
2015,08,13,16,25,28.80
2015,08,13,16,26,28.80
2015,08,13,16,27,28.80
2015,08,13,16,28,28.80
2015,08,13,16,29,28.80
2015,08,13,16,30,28.70
2015,08,13,16,31,28.50
2015,08,13,16,32,28.40
2015,08,13,16,33,28.30
2015,08,13,16,34,28.30
2015,08,13,16,35,28.10
2015,08,13,16,36,28.00
2015,08,13,16,37,27.90
2015,08,13,16,38,27.90
2015,08,13,16,39,27.90
2015,08,13,16,40,28.00
2015,08,13,16,41,28.20
2015,08,13,16,42,28.30
2015,08,13,16,43,28.40
2015,08,13,16,44,28.40
2015,08,13,16,45,28.20
2015,08,13,16,46,28.00
2015,08,13,16,47,27.90
2015,08,13,16,48,27.80
2015,08,13,16,49,27.70
2015,08,13,16,50,27.70
2015,08,13,16,51,27.80
2015,08,13,16,52,27.90
2015,08,13,16,53,28.10
2015,08,13,16,54,28.20
2015,08,13,16,55,28.30
2015,08,13,16,56,28.50
2015,08,13,16,57,28.60
2015,08,13,16,58,28.70
2015,08,13,16,59,28.80
2015,08,13,17,00,28.90
2015,08,13,17,01,28.90
2015,08,13,17,02,28.90
2015,08,13,17,03,28.90
2015,08,13,17,04,28.90
2015,08,13,17,05,28.90
2015,08,13,17,06,28.90
2015,08,13,17,07,28.90
2015,08,13,17,08,28.80
2015,08,13,17,09,28.80
2015,08,13,17,10,28.80
2015,08,13,17,11,28.80
2015,08,13,17,12,28.70
2015,08,13,17,13,28.70
2015,08,13,17,14,28.70
2015,08,13,17,15,28.70
2015,08,13,17,16,28.80
2015,08,13,17,17,28.80
2015,08,13,17,18,28.90
2015,08,13,17,19,28.90